STARLINK-1928 (46758 NORAD) Tracking and Keplerian Element Data
This shows tracking and keplerian element data for the satellite.
Feedback or suggestion? Click here.
Element | Value |
Catalog | 46758 |
Name | STARLINK-1928 |
Epoch Orbit | 180 |
Epoch Day | 20.91667824 |
Epoch Year | 2021 |
RAAN | 98.2487 |
Inclination | 53.0642 |
Eccentricity | 0.0001443 |
Argument of Perigee | 58.7303 |
Mean Anonmoly | 88.7666 |
Mean Motion | 15.06398809 |
Decay Rate | -0.00024558 |
L1 | 1 46758U 20074V 21020.91667824 -.00024558 00000-0 -16355-2 0 9999 |
L2 | 2 46758 53.0642 98.2487 0001443 58.7303 88.7666 15.06398809 1807 |
Live tracking and technical data element details for STARLINK-1928 (NORAD 46758). STARLINK-1928 can be tracked NOW for your location showing map with azimuth and elevation plus other details from your city location.
Track the satellite on the map from your city or location and see movement details for azimuth, elevation, latitude, longitude, range, height, and movement on the map or in text.
IsCatalogInMostPopularTable: catalog: 46758, numindb: 29
Update: records affected: 1
GetName: 46758 STARLINK-1928
Hit Count: updated at: Fri, 22 Jan 2021 19:12:06 GMT